This is the latest recevied weather packets stored in our database for station/object AF5AA. If no packets are shown the sender has not sent any weather packets the latest 10 day(s).
| Time | Temp. | Humidity | Pressure | Rain* | Wind** | Luminosity | Snow |
|---|---|---|---|---|---|---|---|
| 1777919790 | 25.56° C | 50% | 1012.5 hPa | 0 mm | - | 205 W/m² | - |
| 1777919488 | 25.56° C | 47% | 1012.5 hPa | 0 mm | - | 196 W/m² | - |
| 1777919186 | 25° C | 48% | 1012.9 hPa | 0 mm | - | 217 W/m² | - |
| 1777918883 | 25° C | 49% | 1013.1 hPa | 0 mm | - | 313 W/m² | - |
| 1777918580 | 25° C | 49% | 1013 hPa | 0 mm | - | 261 W/m² | - |
| 1777918278 | 25° C | 50% | 1013 hPa | 0 mm | - | 51 W/m² | - |
| 1777917977 | 25° C | 50% | 1013 hPa | 0 mm | - | 62 W/m² | - |
| 1777917675 | 25° C | 50% | 1013 hPa | 0 mm | - | 51 W/m² | - |
| 1777917372 | 24.44° C | 52% | 1012.9 hPa | 0 mm | - | 49 W/m² | - |
| 1777917069 | 24.44° C | 51% | 1013.3 hPa | 0 mm | - | 58 W/m² | - |
| 1777916767 | 24.44° C | 51% | 1013.5 hPa | 0 mm | - | 44 W/m² | - |
| 1777916463 | 23.89° C | 49% | 1013.6 hPa | 0 mm | - | 46 W/m² | - |
| 1777916160 | 24.44° C | 49% | 1013.7 hPa | 0 mm | - | 56 W/m² | - |
| 1777915858 | 24.44° C | 48% | 1013.6 hPa | 0 mm | - | 51 W/m² | - |
| 1777915554 | 24.44° C | 50% | 1013.8 hPa | 0 mm | - | 169 W/m² | - |
| 1777915250 | 24.44° C | 50% | 1013.7 hPa | 0 mm | - | 123 W/m² | - |
| 1777914947 | 23.89° C | 50% | 1013.6 hPa | 0 mm | - | 775 W/m² | - |
| 1777914644 | 23.89° C | 52% | 1013.8 hPa | 0 mm | - | 136 W/m² | - |
| 1777914340 | 23.89° C | 52% | 1013.8 hPa | 0 mm | - | 156 W/m² | - |
| 1777914038 | 23.33° C | 51% | 1013.8 hPa | 0 mm | - | 64 W/m² | - |
| 1777913733 | 23.89° C | 52% | 1014 hPa | 0 mm | - | 433 W/m² | - |
| 1777913430 | 23.33° C | 53% | 1013.7 hPa | 0 mm | - | 60 W/m² | - |
| 1777913127 | 22.78° C | 53% | 1014.1 hPa | 0 mm | - | 199 W/m² | - |
| 1777912823 | 22.78° C | 55% | 1014.2 hPa | 0 mm | - | 51 W/m² | - |
| 1777912520 | 22.78° C | 55% | 1014.3 hPa | 0 mm | - | 56 W/m² | - |
* Rain latest hour (hover to see other rain measurements)
** Current wind speed in m/s (hover to see current wind gust speed)